GFSMA_sfc_30mbdewp_063.txt.gz
Dewpoint
54 53 53 50 49 51 52 52 52 51 51 51 51 51 52 52 54 53 53 56 55 54 54 54 53 52 51 51 49 48 47 47 46 44 43 43 43 43 42 43 42 42 41
55 54 51 50 49 49 48 49 50 50 49 49 51 50 49 50 52 54 53 54 56 55 54 54 54 54 53 52 51 50 47 44 46 43 44 43 43 44 43 42 41 40 39
55 52 51 50 51 52 49 48 48 47 45 44 46 46 45 46 45 47 49 52 53 55 54 55 54 55 54 53 51 50 50 46 44 42 42 41 42 43 42 41 40 39 38
54 54 52 52 52 52 50 48 47 44 41 39 40 40 40 40 41 41 40 41 43 43 48 51 54 56 55 54 51 50 48 48 46 44 44 42 41 42 41 40 39 38 38
54 53 52 53 53 53 53 50 49 47 44 41 39 39 40 40 41 38 40 42 44 41 40 45 48 54 56 55 54 53 52 49 48 48 47 42 41 41 41 40 38 37 36
54 54 53 54 54 52 54 53 51 51 47 46 40 39 39 39 39 41 40 40 42 44 45 45 45 44 50 55 55 52 50 50 51 50 47 45 42 42 41 40 37 36 34
54 54 55 54 55 54 53 54 54 52 50 49 46 45 43 42 40 38 39 39 41 43 45 45 46 45 47 56 56 52 48 45 45 50 49 44 42 42 42 41 37 35 34
54 55 55 56 55 55 55 55 54 53 52 49 48 46 46 44 43 42 40 39 41 41 42 45 46 49 47 44 45 51 45 42 43 43 44 44 41 42 42 41 38 36 34
57 57 57 57 57 58 56 56 55 54 53 51 49 49 45 45 44 43 43 40 39 40 41 43 44 45 46 44 44 44 47 47 46 43 42 44 42 42 43 42 39 38 35
56 56 56 58 58 58 57 57 56 55 54 52 49 47 48 47 45 46 43 43 44 42 40 40 40 44 44 43 42 40 40 40 42 46 44 41 41 42 43 43 41 40 38
54 53 51 53 56 55 57 57 56 55 54 53 51 49 48 47 47 47 46 46 44 44 42 41 40 40 41 42 41 41 40 39 39 42 46 45 41 40 43 44 43 42 40
52 53 53 55 56 56 57 57 57 56 55 54 53 52 49 47 47 46 45 47 44 46 43 43 44 42 41 40 39 37 38 38 40 42 43 43 43 42 40 40 43 44 44
51 53 54 55 56 56 56 57 57 56 56 55 54 53 51 50 52 48 47 46 45 45 42 39 39 41 41 42 41 40 40 40 40 41 41 43 43 42 42 41 40 39 42
50 52 53 53 54 56 56 57 57 57 57 55 55 54 54 54 54 50 48 45 43 42 40 39 37 37 36 37 37 36 37 36 36 38 40 41 43 43 44 43 43 42 40
50 51 52 53 54 55 56 57 57 57 57 56 56 57 55 55 53 50 48 47 46 43 40 40 40 38 37 36 36 37 37 36 35 37 38 39 40 42 42 43 43 43 43
50 51 51 52 53 54 55 56 56 57 56 56 56 55 54 53 51 48 47 45 44 45 43 41 38 38 37 35 36 38 38 35 36 36 36 37 38 39 40 41 41 41 41
51 51 51 51 51 52 55 56 56 56 54 55 53 52 52 50 48 47 46 45 43 42 41 39 38 37 37 37 38 38 37 36 35 35 35 35 36 37 37 38 39 40 40
52 51 52 52 53 54 55 55 55 54 52 52 51 50 50 48 47 46 44 42 42 41 39 38 37 37 37 37 37 35 33 30 31 30 33 33 34 35 35 36 37 37 38
51 52 52 53 53 53 54 55 55 53 52 52 51 50 49 47 46 44 42 41 40 39 39 37 36 37 36 34 32 32 31 29 25 25 25 25 29 32 32 33 34 34 35
51 51 53 53 53 54 55 55 53 52 51 51 50 49 47 46 44 43 42 40 40 37 37 36 34 33 32 31 30 26 18 17 18 19 20 24 28 29 30 30 30 30 30
51 51 52 53 55 55 55 55 53 52 50 48 47 47 45 45 44 42 41 38 37 35 32 31 29 29 28 26 20 14 18 18 20 21 20 20 20 21 22 24 25 25 27
51 52 53 54 55 55 54 52 53 51 49 46 45 44 43 43 41 40 38 37 36 31 29 29 27 25 21 16 16 20 20 19 15 21 22 20 22 22 22 23 24 27 29
54 54 55 55 56 54 51 49 48 48 46 45 43 41 39 37 36 34 32 30 27 25 26 25 20 16 16 19 23 22 20 20 19 20 21 20 20 20 21 22 26 28 29
55 55 55 53 53 50 47 45 45 44 43 42 41 38 35 34 32 29 25 20 19 21 22 21 22 22 24 24 25 23 21 21 20 20 20 18 17 18 21 23 25 28 30
52 50 49 48 47 44 42 42 41 39 36 35 34 33 32 30 29 26 22 22 21 23 24 21 21 22 23 23 22 20 18 16 17 13 16 17 18 19 19 21 24 26 29
45 43 42 43 42 39 38 38 37 34 31 30 29 29 27 28 28 24 22 20 19 20 18 15 16 17 19 20 20 18 17 17 16 14 20 18 13 15 17 17 22 24 25

GFSMA_sfc_30mbdewp_069.txt.gz
Dewpoint
57 59 58 55 52 53 52 50 49 49 47 46 46 48 48 48 49 51 53 56 55 54 53 52 52 51 51 50 49 48 48 47 46 46 46 45 44 44 44 43 42 42 41
56 56 56 55 52 52 51 49 49 48 47 46 46 47 48 49 49 50 52 54 55 55 55 53 52 52 52 51 50 49 49 48 47 46 46 46 45 44 44 42 41 40 40
57 55 55 54 52 52 52 50 49 47 46 45 45 45 46 48 48 49 51 52 54 56 56 56 55 53 53 53 51 50 49 50 48 47 46 45 46 45 44 42 40 39 38
56 55 53 52 53 53 51 49 47 45 44 44 44 44 43 45 47 48 48 51 51 51 55 57 57 56 55 54 53 51 50 48 49 47 48 47 45 46 45 43 41 39 38
55 54 52 52 54 51 50 49 47 46 45 44 43 42 42 42 44 43 44 47 49 49 51 54 56 57 57 56 54 53 53 51 49 48 46 46 46 46 45 44 42 40 39
55 53 52 55 53 50 49 49 48 48 47 46 43 41 42 41 41 40 41 42 42 44 45 49 53 54 57 58 56 54 53 53 52 51 49 48 47 46 46 45 44 42 40
53 53 51 55 55 53 52 52 51 51 49 48 44 44 45 45 44 43 42 41 42 43 44 44 45 46 52 56 58 55 54 54 54 53 52 51 50 47 46 46 45 44 42
51 50 50 52 54 54 54 54 54 53 52 52 47 48 47 47 46 47 45 44 45 43 43 45 45 46 45 48 54 57 56 53 52 51 52 53 53 52 50 47 46 45 44
53 51 52 54 55 53 55 56 56 55 52 54 53 50 47 46 49 49 49 47 46 46 45 44 46 46 46 47 47 49 55 55 54 51 48 49 52 52 51 48 47 46 45
54 54 55 55 55 54 54 56 56 56 54 52 53 54 54 52 48 45 49 50 50 47 47 45 43 46 47 47 44 46 52 53 52 50 49 48 47 47 48 49 48 48 47
56 53 56 56 54 56 56 56 56 56 56 51 53 53 51 50 51 49 45 47 49 48 47 47 46 46 45 44 44 47 45 43 47 46 46 45 44 43 43 45 46 47 48
55 55 56 56 56 57 57 56 55 54 54 54 52 52 51 49 48 50 49 50 51 51 51 51 48 46 48 47 45 45 44 44 42 42 43 43 43 43 43 44 44 44 45
55 54 56 54 53 53 53 55 55 55 54 54 54 53 52 54 53 52 51 51 51 51 52 50 50 51 50 46 45 44 42 41 40 40 42 44 44 44 43 43 43 43 43
53 53 54 54 53 53 54 53 54 53 54 55 55 54 54 54 54 54 54 52 47 51 52 50 50 52 50 49 48 43 42 39 40 40 41 42 42 42 42 42 41 41 41
52 52 52 53 53 53 53 52 51 52 53 55 56 56 55 56 57 57 56 54 51 49 48 49 49 49 49 49 45 42 42 40 38 37 37 37 39 40 41 41 41 41 40
53 52 53 53 52 52 52 52 50 52 53 54 55 55 56 56 56 57 56 55 54 52 49 51 50 49 47 44 43 42 42 42 37 37 36 37 37 38 39 38 38 37 37
54 53 54 53 53 52 52 52 51 52 52 53 54 54 55 57 57 57 57 56 55 54 51 51 49 50 46 44 40 41 42 42 40 38 37 36 36 35 35 35 35 35 34
54 53 53 53 52 52 52 51 51 51 51 52 52 53 55 56 56 56 55 54 53 53 52 50 49 47 44 43 40 40 40 40 40 40 38 36 34 33 31 28 30 32 34
53 53 51 51 51 51 52 52 52 52 52 52 52 53 55 56 55 54 54 53 52 52 52 50 48 42 43 41 41 42 40 40 37 36 34 30 27 22 24 28 30 29 30
53 53 52 51 52 51 51 51 51 52 52 52 53 53 55 54 53 53 53 52 51 50 48 46 44 42 40 39 39 36 36 36 33 29 21 14 18 24 28 28 26 28 28
54 53 53 53 53 53 52 52 52 52 51 51 53 54 54 54 53 53 53 51 49 47 45 43 41 37 37 36 34 34 31 31 27 22 21 22 23 24 25 28 29 29 31
54 53 53 53 53 53 51 50 51 53 52 53 53 54 53 52 52 51 51 50 47 45 43 42 40 38 35 34 34 33 26 22 21 22 22 21 22 22 22 23 23 22 23
54 54 53 53 53 54 52 50 49 52 53 53 53 54 54 53 51 49 44 42 37 40 40 40 36 35 34 34 32 27 23 22 21 21 20 20 21 21 22 20 22 22 23
54 54 54 54 54 53 52 50 49 52 53 53 53 54 52 46 45 42 37 32 30 30 29 29 31 29 30 28 26 24 23 22 23 21 20 19 21 22 23 22 22 22 24
53 53 54 54 53 53 51 49 49 52 50 43 42 43 41 38 37 34 31 30 30 29 31 31 30 30 29 27 24 23 21 17 20 18 20 20 18 20 23 23 20 18 22
53 54 51 48 47 51 45 47 47 43 38 35 33 34 34 34 33 34 33 30 27 26 26 25 23 18 17 22 17 17 16 17 18 18 19 19 19 18 17 19 20 20 20

GFSMA_sfc_30mbdewp_072.txt.gz
Dewpoint
60 60 55 54 53 54 52 51 52 50 49 47 52 51 51 52 53 54 55 55 54 53 53 53 52 52 51 50 49 49 49 48 48 47 46 45 45 45 44 43 43 42 41
59 59 55 53 54 53 53 51 53 51 49 49 50 50 51 52 53 54 55 55 54 55 53 53 53 52 52 51 50 49 49 48 47 47 47 46 45 45 44 42 41 41 40
58 58 57 53 54 54 53 52 51 51 49 48 49 50 51 51 53 54 54 55 56 56 55 55 53 53 53 52 51 50 50 49 48 47 47 47 46 45 44 42 41 40 39
59 58 56 55 54 54 54 54 51 50 49 48 47 48 49 50 51 53 53 54 55 55 56 56 55 55 54 53 53 52 51 51 50 49 48 47 47 47 46 44 42 40 39
58 57 57 57 57 54 55 52 51 49 48 48 47 47 47 48 50 48 52 53 54 53 55 57 57 57 56 56 54 53 52 51 50 50 49 49 48 47 47 46 44 42 40
56 56 57 54 56 54 53 52 50 50 48 47 43 44 46 46 47 47 47 48 53 53 54 54 56 57 57 57 56 55 54 54 52 51 50 49 49 48 48 47 46 45 43
55 56 56 57 54 53 52 53 53 51 51 50 47 45 45 46 46 44 44 45 45 47 47 53 54 55 56 58 58 56 55 54 55 54 53 51 50 51 49 48 48 47 45
55 54 55 55 55 54 52 53 52 53 52 51 47 46 46 46 47 48 46 44 44 45 46 46 52 52 51 54 57 58 56 54 54 55 55 54 54 53 52 49 48 48 47
55 54 54 54 55 55 54 54 54 53 52 53 52 50 48 47 49 48 48 48 46 47 46 46 47 47 48 50 54 57 58 56 56 56 55 55 55 55 54 53 51 50 49
54 53 54 54 55 55 56 56 57 55 55 51 53 54 55 54 48 49 51 50 50 48 48 48 47 48 47 48 50 50 54 56 56 56 55 53 51 52 53 52 52 52 50
54 54 54 56 56 55 57 57 56 56 54 53 53 53 52 52 52 48 47 50 50 51 49 48 47 47 48 48 48 47 46 49 52 54 55 52 50 49 49 48 48 48 50
56 55 56 57 57 57 56 55 56 55 55 53 53 53 51 49 50 50 50 50 50 50 51 49 49 49 48 47 46 45 46 47 50 52 52 51 49 47 44 44 44 44 45
54 55 55 56 55 56 58 57 57 55 54 53 53 53 53 53 53 52 51 50 50 53 52 52 51 50 49 47 46 47 46 46 44 43 44 45 46 46 45 44 45 45 45
54 55 56 55 55 55 55 55 54 55 55 55 53 53 52 52 53 53 52 51 50 51 51 50 52 52 50 51 52 48 46 44 44 44 43 43 44 45 45 44 43 42 42
53 54 55 55 54 52 53 53 54 54 53 54 54 53 53 54 55 55 55 54 52 49 48 49 52 52 52 53 50 49 47 44 42 41 41 42 44 43 42 42 42 42 42
54 54 54 55 54 53 52 52 52 52 53 53 53 53 53 54 55 56 56 56 55 53 50 51 51 52 52 51 51 47 45 44 41 40 40 40 40 40 40 41 41 41 40
55 53 53 53 53 52 52 52 52 52 52 51 52 53 54 56 56 56 56 57 55 54 53 53 53 53 52 51 46 45 44 44 42 39 38 37 37 38 38 37 37 36 37
55 54 53 53 52 52 52 52 52 51 51 50 50 52 53 54 55 56 57 57 56 56 54 52 52 51 51 50 46 44 45 44 42 40 38 38 38 37 35 34 34 32 31
54 54 53 52 52 52 52 52 51 51 51 50 51 51 51 52 53 55 56 55 55 55 54 53 52 50 49 47 44 42 42 42 42 42 42 40 37 36 34 32 27 27 29
53 53 54 53 53 53 52 52 51 51 51 51 51 52 52 52 52 55 55 55 54 53 53 52 51 45 45 43 44 42 42 41 41 40 39 37 36 33 29 23 24 27 28
54 53 53 53 53 53 52 52 52 52 52 52 52 52 52 52 52 55 55 54 53 52 51 50 49 43 42 40 42 42 41 39 40 40 33 26 24 24 26 29 29 29 30
55 54 54 53 53 52 50 49 50 51 51 51 51 52 52 51 53 53 53 52 53 52 50 49 47 44 43 40 38 37 36 34 32 36 33 30 26 25 24 25 25 25 25
55 55 54 54 54 53 52 50 49 51 52 52 52 52 52 53 53 52 49 46 40 39 45 47 44 39 36 36 36 33 32 32 32 33 31 27 25 22 24 22 23 25 25
54 54 54 54 54 54 53 52 50 50 51 52 52 53 53 53 52 51 42 35 32 32 34 35 34 33 34 35 34 33 32 32 32 31 28 21 21 21 24 25 24 24 26
54 54 54 54 54 54 53 51 50 50 51 47 44 43 46 46 44 39 35 32 30 29 32 32 32 32 32 32 32 32 30 29 27 25 26 26 24 22 22 22 25 21 23
53 54 53 47 45 49 44 48 47 47 43 38 34 34 36 36 35 35 33 30 27 26 26 26 26 27 28 27 25 27 26 22 21 20 21 19 20 20 19 20 22 21 20

GFSMA_sfc_30mbdewp_075.txt.gz
Dewpoint
60 58 58 57 56 56 54 51 51 47 48 49 51 52 53 54 54 55 55 55 55 55 54 53 53 52 52 52 51 51 50 49 48 47 47 47 46 45 45 44 43 43 42
58 56 55 53 54 53 50 51 52 47 47 48 51 52 53 53 54 55 55 55 54 53 54 53 53 53 52 51 51 50 50 50 48 47 47 46 46 45 44 43 42 42 41
58 56 53 53 54 53 49 51 52 50 49 51 50 52 53 53 53 54 55 55 54 54 55 55 54 53 53 52 51 50 49 49 48 48 48 47 46 46 44 43 41 41 40
59 56 52 53 54 53 51 52 52 50 49 48 49 50 52 53 54 54 54 55 55 55 55 56 55 55 54 53 53 52 51 50 49 49 48 49 48 46 46 44 42 41 40
58 58 55 54 56 53 54 53 51 50 47 47 48 48 49 53 53 54 54 54 55 55 56 56 56 56 56 55 54 53 53 52 51 51 50 49 49 49 48 47 45 43 42
57 56 58 57 57 54 56 52 51 50 49 48 46 46 48 50 52 53 53 54 54 54 55 55 57 56 56 57 56 54 54 53 52 52 52 51 51 50 49 49 48 46 44
57 57 58 57 58 56 55 52 51 49 49 48 46 46 46 47 47 48 50 53 53 53 54 54 56 56 56 57 57 56 56 55 54 54 52 52 51 52 51 50 50 49 47
56 56 56 56 58 56 56 54 51 52 50 50 45 45 43 45 47 46 46 46 48 50 52 53 54 55 55 56 57 58 57 56 56 55 56 55 54 53 52 52 50 50 50
56 55 56 56 57 57 55 53 52 50 50 51 47 47 47 43 46 48 47 46 44 45 46 47 53 54 54 54 55 57 58 57 57 57 56 57 56 55 54 54 53 52 51
56 55 55 55 55 54 53 54 54 52 52 50 53 54 54 52 49 48 52 47 48 46 46 46 46 50 52 51 52 54 55 57 57 57 57 57 57 57 56 56 55 54 53
56 54 54 54 55 55 54 55 55 54 54 53 51 51 52 52 52 49 45 49 51 50 48 48 47 47 47 48 49 51 53 54 56 56 57 57 57 56 56 56 55 55 54
56 54 55 54 54 55 56 56 56 55 55 53 53 52 50 49 48 49 48 49 49 50 51 49 48 48 48 48 48 48 49 50 51 53 55 56 56 55 53 53 52 50 50
55 55 55 56 56 55 56 57 56 56 56 54 53 53 53 52 52 52 51 50 50 50 51 52 50 48 49 48 48 48 47 46 46 47 49 52 54 54 53 52 50 47 45
54 56 55 57 56 56 57 57 57 56 56 55 54 54 53 53 53 52 52 50 49 49 51 51 52 51 50 49 48 47 47 46 45 45 48 51 53 52 50 48 48 47 46
53 54 56 55 56 55 55 56 56 55 55 55 55 54 53 53 53 53 53 52 50 47 47 49 51 52 52 52 50 50 49 48 47 45 46 47 47 46 46 46 46 45 44
52 54 55 55 55 55 54 54 53 54 54 54 54 54 53 52 53 54 54 54 54 51 49 50 50 51 52 52 52 52 52 50 47 45 44 45 44 45 45 44 43 43 43
51 53 54 55 55 54 53 52 52 52 52 52 53 53 53 53 53 54 54 54 54 54 51 51 53 53 52 52 52 52 51 49 48 45 44 44 43 43 43 41 42 42 42
53 53 54 53 55 54 53 52 51 50 51 51 51 52 52 53 53 54 54 54 54 54 53 51 52 53 52 53 53 49 48 46 45 43 43 44 43 41 39 39 39 39 38
55 55 54 53 53 53 52 52 51 51 51 52 52 51 52 53 53 54 54 54 55 55 55 54 52 53 53 51 51 48 47 47 45 45 43 42 39 38 39 38 38 36 34
53 54 55 53 53 53 52 51 51 51 51 51 52 51 51 50 51 52 53 54 55 55 55 54 53 53 51 49 50 50 45 46 45 44 42 41 41 41 40 39 37 32 29
54 54 54 54 53 52 52 52 51 51 51 51 51 51 51 51 51 51 52 53 54 55 54 53 52 52 47 42 45 47 47 46 41 42 40 40 40 38 37 37 33 33 32
54 54 54 54 54 53 52 50 51 51 51 51 51 51 51 50 50 50 50 51 53 54 53 52 51 50 50 47 46 43 39 37 36 37 36 35 37 35 36 37 35 35 30
55 54 54 54 53 54 52 51 50 52 52 52 52 52 52 52 51 51 48 45 43 41 43 50 51 50 46 39 38 35 34 33 32 32 34 32 34 33 35 35 30 27 28
55 55 55 54 54 54 53 51 49 49 51 51 51 51 52 52 51 51 46 40 35 34 35 37 39 35 35 36 35 34 33 32 32 32 32 29 32 32 32 31 30 31 29
54 55 55 55 55 55 53 52 50 51 51 51 47 45 48 50 50 47 42 35 30 29 33 33 33 32 33 33 34 32 31 30 27 28 31 29 30 30 28 27 27 27 23
54 54 54 51 48 52 47 49 49 50 49 44 38 37 39 42 41 38 37 32 28 27 27 28 28 28 28 29 31 31 30 27 27 26 27 26 24 21 19 23 22 22 22